Regional Weather Roundup
Issued by NWS

Home | Current Version | Previous Version | Text Only | Print | Product List | Glossary Off
Versions: 1 2 3 4 5 6 7 8 9 10 11 12 13 14 15 16 17 18 19 20 21 22 23 24 25 26 27 28 29 30 31 32 33 34 35 36 37 38 39 40 41 42 43 44 45 46 47 48 49 50

000
ASUS43 KLSX 281607
RWRMO

WEATHER SUMMARY FOR MISSOURI
NATIONAL WEATHER SERVICE SPRINGFIELD MO
1000 AM CST SUN DEC 28 2014

NOTE: "FAIR" INDICATES FEW OR NO CLOUDS BELOW 12,000 FEET WITH NO
       SIGNIFICANT WEATHER AND/OR OBSTRUCTIONS TO VISIBILITY.
       CURRENT SKY AND/OR WEATHER CONDITIONS ARE NOT AVAILABLE FOR
       CHILLICOTHE AND FARMINGTON.

MOZ001>031-035>038-043-044-053-054-281700-
...NORTHERN AND WESTERN MISSOURI...

CITY           SKY/WX    TMP DP  RH WIND       PRES   REMARKS
KANSAS CTY INT MOSUNNY   27  22  81 SW9       30.23R WCI  18
KANSAS C DTWN  SUNNY     28  21  75 S6        30.26S WCI  22
LEE`S SUMMIT   SUNNY     28  21  75 S6        30.25S WCI  22
ST JOSEPH      SUNNY     25  21  85 S10       30.23S WCI  15
CHILLICOTHE      N/A     26  21  81 S7        30.26R WCI  18
KIRKSVILLE     SUNNY     27  21  78 SW3       30.23S

$$
MOZ066>068-077>081-088>096-101>105-281700-
...SOUTHWEST MISSOURI...

CITY           SKY/WX    TMP DP  RH WIND       PRES   REMARKS
SPRINGFIELD    CLOUDY    28  22  78 N5        30.24R WCI  23
JOPLIN         PTSUNNY   25  22  88 CALM      30.28R

$$
MOZ032>034-039>042-045>050-055>058-069>072-281700-
...CENTRAL MISSOURI...

CITY           SKY/WX    TMP DP  RH WIND       PRES   REMARKS
COLUMBIA       PTSUNNY   28  24  85 SW5       30.26R WCI  23
JEFFERSON CITY CLOUDY    29  22  75 CALM      30.28S
ROLLA          CLOUDY    28  23  81 CALM      30.22S
SEDALIA        MOSUNNY   24  20  84 SW3       30.27R
WHITEMAN AFB   SUNNY     21  18  86 SW2       30.24R
WARRENSBURG    SUNNY     30  23  74 S5        30.27S WCI  25
OSAGE BEACH    CLOUDY    28  19  69 CALM      30.26S

$$
MOZ051-052-059>065-281700-
...EAST CENTRAL MISSOURI...

CITY           SKY/WX    TMP DP  RH WIND       PRES   REMARKS
ST LOUIS INTL  CLOUDY    33  25  72 N6        30.25S WCI  28
SPIRIT OF STL  CLOUDY    31  24  75 NW6       30.26S WCI  25
ST CHARLES     CLOUDY    31  24  75 N5        30.26S WCI  26

$$
MOZ072>076-082>087-097>100-106>115-281700-
...SOUTH CENTRAL AND SOUTHEAST MISSOURI...

CITY           SKY/WX    TMP DP  RH WIND       PRES   REMARKS
CAPE GIRARDEAU CLOUDY    35  29  78 N9        30.24S WCI  28
POPLAR BLUFF   CLOUDY    35  28  75 N8        30.25R WCI  29
WEST PLAINS    CLOUDY    29  23  78 VRB5      30.23S WCI  24

$$


USA.gov is the U.S. government's official web portal to all federal, state and local government web resources and services.